sat.trackr.live / text

‹ back to catalog

ONEWEB-0583

NORAD 54650 · 2022-166J

PAYLOAD ACTIVE UNKNOWN

§ Identity

Operator
Country
UK
Launch date
2022-12-08
Launch site
AFETR
Launch vehicle
Mass (kg)
RCS (m²)

Purposes: comms

External: N2YO · Heavens-Above · Gunter

§ Orbital elements

Epoch: 2026-09-20T03:24:28.474272Z

Period
108.94 min
Inclination
87.9282°
Eccentricity
0.0002158
Mean motion
13.21825356 rev/d
Perigee alt
1,176.1 km
Apogee alt
1,179.4 km
Semi-major
7,555.9 km
B*
2.2599e-4
RAAN
225.0958°
Arg perigee
81.6248°
Mean anomaly
278.5130°
Rev number
18,407

§ Raw data

ONEWEB-05831 54650U 22166J   26263.14199623  .00000106  00000+0  22599-3 0  99972 54650  87.9282 225.0958 0002158  81.6248 278.5130 13.21825356184076

JSON: /api/v1/satellites/54650 · /tle

For live sub-satellite position, see the globe view (requires WebGL).

§ Visibility from observer

Set your observer location to see the next 7 days of passes ≥ 10°. The values pass through the URL so the page stays shareable.

No JS? Fill the form by hand. The geolocation button needs JavaScript.